Weather History for Jacksonville, TX

Change the Weather History Date:

Sunday, October 27, 2013

  Actual Average (KTYR) Record (KTYR)
Temperature  
Mean Temperature 61 °F 63 °F  
Max Temperature 66 °F 74 °F 89 °F (1938)
Min Temperature 56 °F 53 °F 30 °F (1957)
Degree Days  
Heating Degree Days 4 4  
Month to date heating degree days 53  
Since 1 July heating degree days 58  
Cooling Degree Days 0 2  
Month to date cooling degree days 120  
Year to date cooling degree days 2384  
Growing Degree Days 11 (Base 50)    
Moisture  
Dew Point 58 °F    
Average Humidity 92    
Maximum Humidity 99    
Minimum Humidity 78    
Precipitation  
Precipitation 0.43 in 0.16 in 3.59 in (1970)
Month to date precipitation 4.20  
Year to date precipitation 36.80  
Snow  
Snow 0.00 in - - ()
Month to date snowfall  
Since 1 July snowfall  
Since 1 September snowfall  
Snow Depth -    
Sea Level Pressure  
Sea Level Pressure 30.09 in    
Wind  
Wind Speed 4 mph (West)    
Max Wind Speed 14 mph    
Max Gust Speed 21 mph    
Visibility 8 miles    
Events Fog , Rain , Thunderstorm    
T = Trace of Precipitation, MM = Missing Value Source: NWS Daily Summary

Daily Weather History Graph

Daily Weather History Graph

Search for Another Location

Airport:

Trip Planner

Search our weather history database for the weather conditions in past years. The results will help you decide how hot, cold, wet, or windy it might be!

Date:

Astronomy

Oct. 27, 2013 Rise Set
Actual Time 7:33 AM CDT 6:35 PM CDT
Civil Twilight 7:08 AM CDT 7:00 PM CDT
Nautical Twilight 6:39 AM CDT 7:29 PM CDT
Astronomical Twilight 6:11 AM CDT 7:57 PM CDT
Moon 12:55 AM CDT (10/27) 2:23 PM CDT (10/27)
Length of Visible Light 11h 52m
Length of Day
11h 02m
Last Quarter, 43% of the Moon is Illuminated
Oct 27
Last Quarter
Nov 3
New
Nov 9
First Quarter
Nov 17
Full
Nov 25
Last Quarter

Hourly Weather History & Observations

Time (CDT) Temp. Dew Point Humidity Pressure Visibility Wind Dir Wind Speed Gust Speed Precip Events Conditions
12:15 AM 58.1 °F 56.7 °F 95% 30.16 in 10.0 mi NNE 8.1 mph - N/A Rain Light Rain
12:35 AM 57.7 °F 56.5 °F 96% 30.14 in 10.0 mi NNE 4.6 mph - 0.01 in Rain Light Rain
12:55 AM 57.7 °F 56.5 °F 96% 30.15 in 10.0 mi NE 4.6 mph - 0.02 in Rain , Thunderstorm Rain
1:15 AM 57.7 °F 56.7 °F 96% 30.15 in 3.0 mi Calm Calm - 0.04 in Rain Heavy Rain
1:35 AM 57.7 °F 56.8 °F 97% 30.15 in 7.0 mi SSE 4.6 mph - 0.08 in Rain , Thunderstorm Rain
1:55 AM 57.6 °F 56.8 °F 97% 30.14 in 7.0 mi SSE 6.9 mph - 0.12 in Rain Rain
2:15 AM 57.4 °F 56.7 °F 97% 30.13 in 7.0 mi South 3.5 mph - 0.05 in Rain , Thunderstorm Rain
2:35 AM 57.4 °F 56.7 °F 97% 30.12 in 7.0 mi SSE 8.1 mph - 0.12 in Rain Rain
2:55 AM 57.4 °F 56.7 °F 97% 30.09 in 5.0 mi South 9.2 mph - 0.21 in Rain Rain
3:15 AM 57.4 °F 56.8 °F 98% 30.11 in 10.0 mi SSW 11.5 mph - 0.03 in Rain Light Rain
3:35 AM 57.4 °F 56.8 °F 98% 30.09 in 7.0 mi South 12.7 mph 20.7 mph 0.05 in Rain Light Rain
3:55 AM 57.4 °F 56.8 °F 98% 30.05 in 10.0 mi South 12.7 mph - 0.06 in Rain Light Rain
4:15 AM 57.6 °F 56.8 °F 97% 30.03 in 10.0 mi South 13.8 mph 19.6 mph 0.02 in Rain Rain
4:35 AM 58.1 °F 57.2 °F 97% 30.06 in 10.0 mi South 12.7 mph 16.1 mph 0.02 in Rain Rain
4:55 AM 58.1 °F 56.8 °F 96% 30.05 in 10.0 mi South 10.4 mph - 0.02 in   Scattered Clouds
5:15 AM 58.1 °F 56.8 °F 96% 30.05 in 10.0 mi South 9.2 mph - N/A   Clear
5:35 AM 58.1 °F 56.8 °F 96% 30.05 in 10.0 mi South 4.6 mph - N/A   Clear
5:55 AM 57.7 °F 56.7 °F 96% 30.06 in 10.0 mi Calm Calm - N/A   Clear
6:15 AM 57.2 °F 56.3 °F 97% 30.08 in 10.0 mi Calm Calm - N/A   Clear
6:35 AM 56.7 °F 56.1 °F 98% 30.08 in 3.0 mi NNW 5.8 mph - N/A   Scattered Clouds
6:55 AM 57.2 °F 56.5 °F 97% 30.08 in 0.5 mi Calm Calm - N/A Fog Fog
7:15 AM 56.7 °F 56.3 °F 99% 30.09 in 1.0 mi Calm Calm - N/A   Overcast
7:35 AM 56.5 °F 56.1 °F 99% 30.09 in 0.5 mi Calm Calm - N/A Fog Fog
7:55 AM 56.3 °F 55.8 °F 98% 30.10 in 0.2 mi Calm Calm - N/A Fog Fog
8:15 AM 56.8 °F 56.5 °F 99% 30.11 in 4.0 mi Calm Calm - N/A   Scattered Clouds
8:35 AM 57.0 °F 56.5 °F 98% 30.12 in 0.2 mi North 5.8 mph - N/A Fog Fog
8:55 AM 56.7 °F 56.3 °F 99% 30.13 in 0.2 mi North 3.5 mph - N/A Fog Fog
9:15 AM 57.2 °F 57.0 °F 99% 30.14 in 0.2 mi NNW 4.6 mph - N/A Fog Fog
9:35 AM 58.1 °F 57.6 °F 98% 30.14 in 0.5 mi North 4.6 mph - N/A Fog Fog
9:55 AM 58.3 °F 58.1 °F 99% 30.14 in 10.0 mi Calm Calm - N/A   Overcast
10:15 AM 59.0 °F 58.3 °F 97% 30.14 in 10.0 mi NNE 3.5 mph - N/A   Overcast
10:35 AM 59.4 °F 58.5 °F 97% 30.15 in 10.0 mi Calm Calm - N/A   Overcast
10:55 AM 59.9 °F 58.8 °F 96% 30.15 in 10.0 mi Calm Calm - N/A   Overcast
11:15 AM 60.3 °F 58.6 °F 94% 30.15 in 10.0 mi Calm Calm - N/A   Overcast
11:35 AM 61.0 °F 59.2 °F 94% 30.15 in 10.0 mi NNE 3.5 mph - N/A   Overcast
11:55 AM 61.0 °F 59.0 °F 93% 30.14 in 10.0 mi Calm Calm - N/A   Overcast
12:15 PM 62.2 °F 59.0 °F 89% 30.14 in 10.0 mi Calm Calm - N/A   Overcast
12:35 PM 62.8 °F 59.0 °F 87% 30.13 in 10.0 mi Calm Calm - N/A   Overcast
12:55 PM 63.0 °F 59.2 °F 87% 30.12 in 10.0 mi Calm Calm - N/A   Overcast
1:15 PM 63.3 °F 59.4 °F 87% 30.11 in 10.0 mi Calm Calm - N/A   Overcast
1:35 PM 64.4 °F 59.4 °F 84% 30.10 in 10.0 mi WNW 4.6 mph - N/A   Overcast
1:55 PM 64.8 °F 59.2 °F 82% 30.09 in 10.0 mi Calm Calm - N/A   Overcast
2:15 PM 65.7 °F 59.5 °F 81% 30.08 in 10.0 mi West 4.6 mph - N/A   Overcast
2:35 PM 66.0 °F 59.5 °F 80% 30.08 in 10.0 mi West 3.5 mph - N/A   Overcast
2:55 PM 66.7 °F 59.7 °F 78% 30.07 in 10.0 mi WNW 3.5 mph - N/A   Overcast
3:15 PM 65.8 °F 59.5 °F 80% 30.07 in 10.0 mi WNW 5.8 mph - N/A   Mostly Cloudy
3:35 PM 66.0 °F 59.5 °F 80% 30.07 in 10.0 mi WNW 5.8 mph - N/A   Overcast
3:55 PM 66.0 °F 59.7 °F 80% 30.07 in 10.0 mi NNW 3.5 mph - N/A   Overcast
4:15 PM 65.5 °F 59.5 °F 81% 30.07 in 10.0 mi NW 5.8 mph - N/A   Overcast
4:35 PM 65.5 °F 59.4 °F 81% 30.07 in 10.0 mi NW 4.6 mph - N/A   Overcast
4:55 PM 64.9 °F 59.4 °F 82% 30.06 in 10.0 mi WNW 3.5 mph - N/A   Overcast
5:15 PM 64.9 °F 59.2 °F 82% 30.06 in 10.0 mi Calm Calm - N/A   Overcast
5:35 PM 64.9 °F 59.4 °F 82% 30.06 in 10.0 mi Calm Calm - N/A   Overcast
5:55 PM 65.3 °F 59.5 °F 82% 30.06 in 10.0 mi Calm Calm - N/A   Scattered Clouds
6:15 PM 64.0 °F 59.4 °F 85% 30.06 in 10.0 mi Calm Calm - N/A   Clear
6:35 PM 63.0 °F 60.3 °F 91% 30.06 in 10.0 mi Calm Calm - N/A   Mostly Cloudy
6:55 PM 63.0 °F 59.5 °F 89% 30.06 in 10.0 mi Calm Calm - N/A   Overcast
7:15 PM 63.5 °F 59.7 °F 87% 30.06 in 10.0 mi Calm Calm - N/A   Overcast
7:35 PM 63.7 °F 59.9 °F 87% 30.07 in 10.0 mi Calm Calm - N/A   Overcast
7:55 PM 63.5 °F 60.4 °F 90% 30.07 in 10.0 mi Calm Calm - N/A   Overcast
8:15 PM 63.5 °F 59.9 °F 88% 30.07 in 10.0 mi Calm Calm - N/A   Overcast
8:35 PM 62.6 °F 60.4 °F 93% 30.08 in 7.0 mi Calm Calm - N/A   Overcast
8:55 PM 62.6 °F 60.6 °F 93% 30.08 in 7.0 mi Calm Calm - N/A   Overcast
9:15 PM 63.1 °F 60.8 °F 92% 30.07 in 10.0 mi Calm Calm - N/A   Overcast
9:35 PM 62.8 °F 60.4 °F 92% 30.07 in 10.0 mi Calm Calm - N/A   Overcast
9:55 PM 62.2 °F 59.9 °F 92% 30.08 in 10.0 mi Calm Calm - N/A   Overcast
10:15 PM 61.9 °F 59.9 °F 93% 30.08 in 7.0 mi Calm Calm - N/A   Overcast
10:35 PM 60.8 °F 59.5 °F 96% 30.08 in 4.0 mi Calm Calm - N/A   Overcast
10:55 PM 60.3 °F 58.8 °F 95% 30.09 in 5.0 mi Calm Calm - N/A   Mostly Cloudy
11:15 PM 59.9 °F 58.8 °F 96% 30.09 in 5.0 mi Calm Calm - N/A   Scattered Clouds
11:35 PM 59.4 °F 58.1 °F 96% 30.08 in 7.0 mi Calm Calm - N/A   Clear
11:55 PM 59.0 °F 58.3 °F 97% 30.08 in 4.0 mi Calm Calm - N/A   Mostly Cloudy